Dewpoint
72 72 72 73 73 73 74 74 75 74 74 75 75 74 73 72 72 73 73 70 68 68 69 68 68 68 64 67 68 72 71 73 70 71 72 72 73 74 74 74 74 73 73 73 73 72 72 72 71 71 71 71 71 71 71 71 70 71 72 72 71 72 72 72 72 73 72 72 73 72 72 72 71 72 72 72 72 72 72 71 71 71 71 71 70
71 72 72 73 73 72 73 74 74 74 74 74 74 74 73 71 71 70 70 73 73 74 72 65 62 63 65 64 63 61 69 68 71 69 71 69 72 74 74 74 74 73 73 72 73 73 72 72 72 72 72 72 72 71 71 71 72 72 72 72 72 72 73 73 73 73 73 72 73 73 72 72 72 72 72 73 73 73 72 72 72 72 72 72 72
71 73 75 77 76 74 73 74 74 75 75 74 74 74 73 71 72 75 71 75 70 67 68 69 69 64 63 62 64 65 65 67 64 64 67 69 71 73 74 74 74 74 74 73 72 73 73 73 73 72 73 73 73 72 72 72 73 73 73 73 73 73 73 73 74 74 74 74 74 74 74 73 74 73 73 73 72 72 73 73 73 73 73 73 73
74 74 75 75 74 74 72 72 72 74 74 74 73 73 72 72 72 77 74 75 76 74 71 67 68 64 69 60 68 71 67 64 56 60 65 69 71 71 73 73 75 75 74 74 74 74 74 74 74 74 73 73 74 74 73 74 73 73 74 74 74 74 74 74 74 75 75 75 75 75 75 75 75 74 73 73 73 73 73 74 74 74 74 74 74
76 75 73 74 74 73 72 71 72 74 72 72 71 71 71 72 78 74 74 73 72 70 71 70 70 66 68 58 58 64 70 65 61 63 63 68 71 71 72 72 73 74 75 75 75 74 74 75 74 74 75 74 74 75 75 75 75 74 75 75 75 75 75 75 75 75 75 76 76 76 76 76 76 75 74 74 74 74 74 74 74 75 75 75 75
75 75 74 73 71 70 71 70 73 72 72 71 73 74 74 74 72 75 69 75 69 68 70 65 68 69 68 61 69 67 68 58 65 65 65 64 68 71 72 73 73 73 73 75 75 76 75 75 75 75 75 75 75 75 75 75 75 76 76 76 76 76 76 76 76 76 76 76 76 76 77 76 76 76 75 74 74 74 75 75 75 75 75 76 76
76 76 74 74 71 74 73 73 75 75 76 77 77 77 75 75 76 76 68 73 68 72 69 63 63 65 68 69 72 69 62 63 66 64 68 70 71 68 71 72 73 73 73 73 75 76 75 75 75 75 75 75 75 75 76 76 76 77 77 77 77 77 77 77 77 77 77 77 77 77 77 77 76 75 75 75 75 75 75 76 76 76 76 77 77
78 78 77 75 74 72 73 76 78 79 78 79 76 75 76 78 74 75 73 66 70 68 71 70 65 61 65 67 71 71 71 68 66 58 62 64 66 72 72 77 74 74 75 73 73 75 77 76 76 76 76 76 76 76 76 77 77 77 77 77 78 78 77 77 77 78 78 78 78 78 78 77 77 76 76 76 76 77 76 77 77 77 77 77 77
78 77 78 75 74 72 74 75 77 77 79 77 75 77 72 69 76 75 74 75 66 58 66 69 63 62 64 61 69 75 71 74 64 62 62 66 67 65 69 70 74 72 76 74 75 75 78 78 77 77 77 77 77 77 77 77 77 77 78 78 78 78 78 78 78 78 78 78 78 78 78 78 77 77 77 77 76 77 77 77 77 77 77 77 77
78 79 79 76 75 73 74 76 77 79 79 78 77 76 75 76 76 78 77 76 72 68 69 66 57 58 63 59 67 58 66 69 71 73 72 73 71 70 67 65 71 70 72 73 73 74 73 76 79 78 78 78 78 78 78 78 78 78 78 78 78 78 78 78 78 78 78 78 78 78 78 78 78 78 78 78 78 78 77 77 77 77 77 77 77
77 77 78 77 75 76 76 77 77 80 80 76 74 76 77 74 74 77 77 74 73 71 71 71 60 59 53 56 70 74 68 69 70 70 66 62 66 67 61 75 67 70 72 75 74 72 73 74 76 76 76 78 79 79 79 79 78 78 78 78 78 78 78 78 78 78 78 78 78 78 78 78 78 78 78 78 78 78 77 77 77 77 77 77 77
77 76 77 78 75 76 76 74 76 78 77 75 76 76 76 76 76 74 76 75 72 71 71 69 66 66 68 66 69 73 70 67 69 63 65 64 66 72 64 70 73 72 70 69 74 69 74 77 79 76 75 76 78 80 80 79 79 78 78 77 77 77 77 78 78 78 78 78 79 79 79 79 79 78 78 78 78 78 77 77 77 77 77 77 76
77 75 76 78 78 76 79 76 76 77 78 77 75 73 77 78 77 80 75 73 72 65 65 70 79 74 72 67 71 71 71 74 67 59 59 64 72 66 66 66 68 70 73 72 72 68 72 75 74 77 77 75 77 80 80 80 79 77 76 76 77 77 78 78 79 78 78 79 79 79 79 79 79 78 78 78 78 78 78 77 77 77 76 76 76
77 77 79 79 76 77 78 79 79 79 81 77 76 75 78 75 78 80 78 72 70 63 65 71 73 68 69 69 71 70 72 65 63 57 58 59 62 70 71 67 60 64 73 72 71 69 64 74 77 74 76 79 76 77 79 79 79 79 78 77 76 77 78 78 78 78 79 79 79 79 79 79 79 79 78 78 78 78 78 78 77 76 76 76 76
76 78 75 76 78 78 78 77 77 77 80 80 79 79 80 76 76 77 76 75 74 70 77 73 68 67 71 71 68 67 68 67 63 57 55 56 57 58 60 57 59 65 70 72 71 69 62 68 68 77 77 77 74 78 79 78 77 78 77 77 76 76 77 78 78 78 79 78 79 79 79 79 79 78 78 78 78 78 78 78 78 77 76 76 76
73 73 76 76 77 79 76 78 80 79 80 80 79 78 80 78 76 76 76 72 70 70 69 75 72 73 75 73 67 65 65 63 71 64 57 55 54 56 54 54 66 65 67 67 62 74 69 67 71 76 78 79 78 75 77 73 77 79 79 78 78 77 78 77 78 79 78 78 78 79 79 80 79 78 78 78 78 78 78 78 78 78 77 77 76
74 74 75 77 79 81 80 78 79 80 80 79 79 73 75 74 77 76 76 74 73 71 69 69 73 76 78 74 68 68 64 64 57 64 59 58 51 53 60 55 57 68 69 60 66 71 64 67 73 75 71 74 76 78 74 75 77 79 78 80 78 79 78 78 78 78 78 79 78 79 79 79 79 79 78 78 78 78 78 78 78 78 77 77 77
76 75 74 75 77 76 77 77 76 79 78 77 77 78 76 74 77 78 75 76 75 73 68 75 70 76 77 77 75 69 73 65 64 72 76 60 61 51 59 54 55 68 72 67 63 63 71 67 72 76 72 73 74 77 75 77 82 80 80 78 78 78 79 79 79 77 77 78 79 79 79 79 79 79 78 78 78 78 78 78 78 78 78 78 77
73 75 74 77 76 79 76 78 77 77 78 78 77 72 73 72 76 76 78 79 78 76 73 67 72 71 64 61 65 70 62 69 70 71 67 70 65 59 59 55 55 59 59 55 60 65 69 68 64 60 71 72 75 73 79 74 74 79 79 78 78 79 79 78 78 78 77 77 78 79 79 79 79 79 79 79 79 78 78 78 78 78 78 78 77
74 77 76 75 77 77 78 77 80 74 78 77 75 75 77 75 77 78 79 81 78 78 75 73 74 76 69 69 66 67 67 64 66 68 73 69 64 63 62 56 63 57 62 62 56 58 60 69 60 62 69 71 73 76 75 77 79 77 74 77 77 79 80 79 79 79 79 78 77 78 79 79 79 79 79 79 79 78 78 78 78 78 78 78 78
76 75 75 75 76 77 77 78 76 78 79 75 76 73 73 76 78 79 79 78 77 78 79 77 73 70 75 73 71 72 68 67 70 74 71 70 68 63 66 59 61 56 66 60 56 60 60 65 59 62 70 72 76 75 73 79 84 84 76 76 79 79 79 79 78 79 79 79 79 79 79 78 78 78 78 78 78 78 79 79 78 78 78 78 78
75 76 77 75 76 77 75 73 74 72 73 75 74 75 76 78 78 75 78 78 81 79 79 78 77 76 77 78 75 75 71 72 67 64 65 71 73 65 62 61 68 67 62 56 53 66 58 69 63 62 67 72 75 74 76 78 81 77 76 78 79 79 79 78 78 79 79 79 79 79 79 78 79 78 78 78 78 79 79 79 79 79 78 78 78
72 76 75 74 76 77 72 71 72 78 78 76 78 72 72 74 75 77 77 78 79 78 77 78 79 78 73 80 77 68 77 72 70 70 69 70 71 65 61 65 60 63 68 65 68 62 67 64 67 60 69 68 74 76 78 78 75 73 72 75 75 77 77 78 78 78 78 78 79 78 78 78 78 78 78 78 78 78 78 79 79 79 79 78 78
76 73 73 71 76 76 76 76 78 77 76 76 76 74 73 76 78 80 80 79 80 82 79 76 72 76 74 68 69 68 69 71 65 76 72 72 72 68 70 73 69 68 66 68 65 62 64 62 64 68 72 75 78 81 81 79 76 75 74 74 74 76 76 78 79 78 78 78 77 77 77 77 78 77 78 78 78 78 78 78 78 78 78 79 78
74 71 70 71 77 76 77 80 79 78 80 80 78 77 78 76 78 73 78 77 80 78 79 75 71 75 73 68 71 75 69 69 68 67 70 75 72 71 64 63 67 68 71 67 73 64 65 67 70 71 76 79 79 82 78 77 75 76 76 73 73 75 77 78 79 78 78 77 77 77 78 78 78 78 78 78 78 78 78 78 78 78 78 78 78
71 74 70 70 73 74 76 77 79 77 78 77 77 77 78 78 77 79 73 79 81 78 79 73 74 75 76 72 69 68 74 74 73 69 70 75 76 69 73 71 65 65 74 76 73 71 70 72 72 80 77 78 77 80 79 75 70 76 76 73 72 72 75 77 78 78 78 77 77 77 77 78 78 78 78 78 78 78 78 78 78 78 78 78 78
74 75 76 75 74 76 75 76 77 78 78 79 74 77 80 79 79 79 79 77 78 74 77 72 69 70 69 77 76 69 73 72 72 72 72 69 70 72 77 73 69 65 68 75 69 64 67 71 73 77 78 82 80 78 77 74 72 77 75 75 76 73 75 77 77 77 77 77 77 76 76 77 77 78 78 78 77 77 77 78 78 77 78 78 78
75 76 73 75 75 75 76 75 78 76 77 78 78 77 78 77 80 79 77 75 78 76 76 74 70 72 68 75 74 68 69 73 73 70 76 73 72 76 73 75 73 71 70 69 67 68 63 71 72 71 74 76 74 75 76 73 68 71 75 75 74 80 74 75 74 74 75 75 75 76 76 76 76 77 78 77 77 77 77 77 77 77 77 77 77
74 73 74 77 77 76 75 73 77 77 78 78 76 78 78 77 76 78 77 75 79 78 76 77 78 68 69 70 74 75 71 71 69 70 73 74 74 76 78 75 75 73 71 70 71 68 68 62 64 75 72 73 74 73 72 70 72 73 74 75 75 74 74 73 73 73 73 73 74 74 74 75 76 76 77 78 76 76 76 76 76 76 76 76 77
72 71 74 74 77 76 77 77 76 76 76 75 76 77 78 78 77 79 77 79 79 80 78 75 75 75 73 72 70 74 76 74 72 70 76 78 77 75 77 78 77 75 76 72 71 72 70 66 62 69 77 76 73 73 72 71 75 72 76 73 73 74 73 71 72 71 71 72 72 73 74 75 75 76 75 75 74 74 75 76 76 76 76 76 76
76 77 75 73 76 75 78 75 77 76 77 76 77 78 78 79 77 77 77 79 78 77 79 77 73 74 77 73 78 75 75 72 76 71 74 77 77 78 76 75 75 75 75 74 71 75 71 71 68 65 68 72 68 69 65 65 71 71 73 73 74 71 70 71 71 70 70 70 71 71 72 72 73 73 73 73 73 73 73 75 76 76 76 76 76
72 73 73 73 74 72 73 73 73 73 74 74 73 76 78 77 75 73 74 77 77 77 75 74 70 76 74 76 77 77 77 78 76 74 75 73 72 73 76 78 78 76 77 77 73 72 76 69 70 68 65 67 70 70 71 71 67 69 73 74 76 74 74 72 71 71 70 70 70 71 71 71 70 71 71 72 72 73 73 74 74 74 76 76 76
72 73 72 73 73 72 71 73 71 74 77 75 75 77 77 77 77 79 79 78 78 77 78 76 72 74 79 76 76 76 78 76 76 72 70 71 74 76 77 76 74 78 77 76 75 74 74 76 74 71 69 70 67 71 72 72 73 73 72 73 75 72 69 69 68 67 69 69 69 70 70 70 69 69 70 71 72 72 73 73 73 73 73 73 73
72 70 71 71 73 73 70 71 74 73 75 77 72 74 76 76 76 72 74 78 78 77 78 78 77 73 76 77 76 74 76 74 72 69 69 66 65 68 74 75 79 78 81 76 75 76 73 75 74 75 72 70 69 75 73 73 72 74 72 71 69 70 69 70 68 65 66 68 69 69 69 69 68 69 69 70 71 72 72 71 71 70 70 70 69
73 71 69 69 74 75 73 75 76 75 77 74 74 75 76 76 75 72 70 75 75 74 74 75 73 75 75 76 73 73 69 70 71 69 68 69 69 71 69 73 72 72 74 77 77 75 73 73 75 72 72 75 74 73 74 72 74 74 75 74 67 65 66 67 67 63 65 67 70 69 68 68 68 68 68 68 69 69 69 69 68 67 67 66 65
69 71 70 70 74 76 74 76 76 75 75 74 73 73 76 76 75 76 75 74 75 74 74 73 72 73 73 75 72 71 71 74 74 76 74 72 73 75 76 76 76 75 76 77 78 77 75 73 75 74 74 74 75 73 72 73 71 73 70 69 71 69 68 67 66 64 65 68 69 69 68 67 67 67 66 67 67 66 65 65 65 65 65 65 64
69 69 73 74 75 76 70 72 74 76 75 75 75 71 71 73 74 73 75 76 75 76 75 76 74 77 75 74 74 75 75 73 74 72 71 73 71 75 75 77 75 75 74 79 78 76 75 74 74 75 77 75 74 74 74 72 73 73 75 75 72 70 72 69 65 62 64 65 67 67 67 67 67 66 66 65 65 65 65 64 64 64 64 64 64
71 68 70 71 73 75 74 73 74 76 76 77 77 75 71 71 73 73 74 75 73 74 73 72 73 73 72 74 73 74 71 72 71 76 78 77 74 73 73 73 75 77 81 77 77 76 76 75 75 75 76 75 73 73 75 75 72 70 71 72 72 72 73 71 67 62 63 64 63 63 64 64 64 64 64 65 64 64 64 64 64 64 64 63 62
67 68 69 71 74 74 75 73 72 77 77 75 78 77 75 75 74 75 72 74 74 73 73 72 72 70 71 71 73 75 75 72 70 71 74 73 67 74 75 75 76 75 74 73 75 76 75 75 74 75 74 74 75 71 73 73 71 69 68 70 71 72 72 73 73 72 66 65 67 66 66 66 66 65 63 63 63 63 64 64 64 64 64 63 61
65 65 68 71 69 71 73 71 74 76 77 76 77 78 77 75 74 74 74 75 73 73 71 73 71 69 69 68 67 68 70 72 72 73 74 73 75 74 76 76 78 77 76 75 75 75 74 71 72 71 73 73 73 72 72 73 73 73 72 69 68 69 71 78 78 74 72 71 69 66 66 65 65 65 64 64 65 66 66 65 65 65 65 64 63
64 64 68 70 70 71 71 73 74 73 73 74 75 75 76 77 76 73 73 73 73 73 72 70 69 70 69 66 64 62 71 74 73 75 76 77 74 76 77 77 77 76 74 74 73 74 74 73 73 73 73 72 73 72 71 72 72 72 71 71 71 73 72 70 73 73 71 70 70 68 67 69 68 67 68 70 71 71 70 68 68 69 68 65 64
71 72 73 68 66 70 70 72 72 71 70 72 75 76 76 75 76 73 73 75 75 74 73 74 70 67 65 64 64 68 69 67 71 78 75 75 75 71 77 77 78 77 77 76 76 75 74 74 73 72 70 69 67 67 68 67 66 68 69 71 70 71 71 72 73 73 75 72 71 72 72 71 70 70 71 70 70 71 71 71 70 74 71 67 65
73 77 72 70 64 62 64 69 69 69 67 70 72 69 70 74 74 76 75 76 75 74 73 75 75 71 69 68 66 70 79 78 77 78 75 74 76 76 76 76 76 76 74 73 73 73 74 72 72 71 69 69 69 70 69 65 67 71 71 72 72 72 72 72 70 72 78 76 73 73 73 74 74 73 73 72 72 71 71 72 69 69 69 68 65
72 71 69 69 71 69 66 65 62 68 68 65 64 65 68 68 74 76 72 72 71 72 72 72 73 71 69 67 67 64 65 74 74 77 77 77 76 76 75 75 75 75 74 74 74 73 73 72 72 72 71 70 71 71 68 68 72 72 73 73 73 73 73 72 72 71 74 76 75 73 72 73 75 75 74 73 73 72 70 67 66 67 67 67 65
73 73 74 72 73 72 72 72 70 70 68 63 63 64 65 65 67 73 70 69 66 65 68 72 72 72 72 74 71 71 73 77 76 76 78 78 78 75 75 75 76 74 70 69 70 74 73 73 71 70 70 71 72 73 73 74 76 73 73 73 74 74 74 73 73 72 72 75 74 72 71 72 74 74 73 73 73 72 71 68 68 68 67 66 65
72 73 73 73 73 73 72 72 72 68 65 60 60 61 62 64 65 69 70 69 69 68 70 68 66 70 74 74 73 72 74 72 71 73 74 77 77 76 76 76 76 76 76 71 69 69 71 71 71 71 73 75 74 75 76 76 75 75 73 72 72 72 72 72 73 73 73 74 72 72 72 72 73 72 71 71 71 73 75 72 67 66 66 66 65
73 73 73 73 73 72 72 71 69 65 61 58 58 59 60 61 64 72 72 70 70 69 69 71 73 73 74 74 73 74 75 71 71 72 71 72 76 76 76 75 74 74 74 74 74 74 74 72 71 71 71 73 74 76 77 75 74 74 74 74 74 73 74 74 73 74 73 74 74 74 71 71 70 69 69 69 70 71 72 68 66 66 66 64 64
72 73 73 73 72 72 73 73 69 65 61 57 57 57 58 59 64 72 73 74 72 71 71 74 74 75 75 75 75 75 72 70 67 64 67 73 73 74 74 73 73 72 70 74 66 69 74 73 75 74 73 72 67 72 73 71 73 75 73 72 73 74 73 72 72 71 70 72 73 71 71 71 72 70 70 71 72 72 72 72 68 68 66 65 65
71 71 72 72 72 71 71 72 69 65 62 58 55 55 56 57 66 71 73 73 73 72 74 74 74 74 73 73 72 72 70 68 63 59 62 72 73 72 72 71 71 70 70 69 69 69 69 67 65 65 64 63 63 62 62 62 67 68 73 73 72 73 72 71 71 70 71 72 72 73 71 70 71 72 71 71 72 71 71 72 72 68 66 65 65
70 70 70 71 71 71 71 71 69 65 63 60 54 54 55 56 64 70 73 73 73 74 74 73 74 74 72 73 71 68 67 66 59 58 60 68 71 72 71 71 70 70 71 71 71 71 69 69 69 68 67 66 64 64 68 68 66 70 72 72 71 71 71 71 70 71 71 72 73 73 72 71 71 72 72 72 71 72 71 71 72 71 68 68 67
70 71 71 70 71 71 71 70 69 68 66 62 55 54 54 55 62 69 74 73 73 73 73 73 73 73 70 70 70 67 66 63 57 57 59 66 68 69 70 70 69 70 71 69 69 70 71 71 72 73 73 74 78 75 76 73 72 74 73 72 72 72 71 70 70 70 70 71 74 73 71 70 71 72 72 71 70 71 72 73 72 72 73 73 73